{"data":{"norad_id":62267,"epoch":"2026-05-24T21:29:04.065216Z","epoch_age_seconds":77361,"freshness":"FRESH","line1":"1 62267U 24237A   26144.89518594  .00199129  00000+0  15164-2 0  9996","line2":"2 62267  42.9991 317.6108 0001664 278.6042  81.4637 15.70871769 85037","mean_motion":15.70871769,"eccentricity":0.0001664,"inclination_deg":42.9991,"raan_deg":317.6108,"arg_perigee_deg":278.6042,"mean_anomaly_deg":81.4637,"bstar":0.0015164,"rev_number":8503,"period_min":91.668844549717,"perigee_km":355.28363368531,"apogee_km":357.52488901708,"semimajor_km":6734.5412613512,"source":"CELESTRAK","updated_at":"2026-05-25T13:38:19.640562Z"}}